Weather History for Gulfport, MS

Change the Weather History Date:

Thursday, March 7, 2013

  Actual Average Record
Temperature  
Mean Temperature 47 °F -  
Max Temperature 55 °F 66 °F 80 °F (1951)
Min Temperature 39 °F 46 °F 29 °F (1966)
Degree Days  
Heating Degree Days 18    
Moisture  
Dew Point 35 °F    
Average Humidity 63    
Maximum Humidity 93    
Minimum Humidity 41    
Precipitation  
Precipitation 0.00 in - - ()
Sea Level Pressure  
Sea Level Pressure 30.28 in    
Wind  
Wind Speed 5 mph (NNE)    
Max Wind Speed 8 mph    
Max Gust Speed -    
Visibility 10 miles    
Events      
Averages and records for this station are not official NWS values.
T = Trace of Precipitation, MM = Missing Value Source: NWS Daily Summary

Daily Weather History Graph

Daily Weather History Graph

Search for Another Location

Airport:

Trip Planner

Search our weather history database for the weather conditions in past years. The results will help you decide how hot, cold, wet, or windy it might be!

Date:

Astronomy

Mar. 07, 2013 Rise Set
Actual Time 6:15 AM CST 5:59 PM CST
Civil Twilight 5:51 AM CST 6:23 PM CST
Nautical Twilight 5:23 AM CST 6:51 PM CST
Astronomical Twilight 4:55 AM CST 7:19 PM CST
Moon 3:00 AM CST (3/7) 2:01 PM CST (3/7)
Length of Visible Light 12h 32m
Length of Day
11h 44m
Waning Crescent, 20% of the Moon is Illuminated
Mar 7
Waning Crescent
Mar 11
New
Mar 19
First Quarter
Mar 27
Full
Apr 2
Last Quarter

Hourly Weather History & Observations

Time (CST) Temp. Windchill Dew Point Humidity Pressure Visibility Wind Dir Wind Speed Gust Speed Precip Events Conditions
12:53 AM 42.1 °F 40.2 °F 30.0 °F 62% 30.28 in - NNE 3.5 mph - N/A   Clear
1:53 AM 41.0 °F 38.0 °F 30.0 °F 65% 30.26 in - North 4.6 mph - N/A   Clear
2:53 AM 41.0 °F 36.4 °F 30.0 °F 65% 30.24 in - NE 6.9 mph - N/A   Clear
3:53 AM 41.0 °F 36.4 °F 30.0 °F 65% 30.25 in - NE 6.9 mph - N/A   Clear
4:53 AM 42.1 °F 37.1 °F 28.9 °F 60% 30.26 in - NE 8.1 mph - N/A   Clear
5:53 AM 39.9 °F 36.7 °F 28.9 °F 65% 30.30 in 10.0 mi NNE 4.6 mph - N/A   Clear
6:53 AM 39.0 °F 36.8 °F 30.0 °F 70% 30.32 in 10.0 mi NE 3.5 mph - N/A   Clear
7:53 AM 44.1 °F 39.5 °F 30.0 °F 58% 30.34 in 10.0 mi NE 8.1 mph - N/A   Clear
8:53 AM 48.0 °F - 30.0 °F 50% 30.34 in 10.0 mi NE 6.9 mph - N/A   Clear
9:53 AM 52.0 °F - 30.9 °F 45% 30.36 in 10.0 mi NE 4.6 mph - N/A   Clear
10:53 AM 54.0 °F - 30.9 °F 41% 30.35 in 10.0 mi WNW 3.5 mph - N/A   Clear
11:53 AM 55.9 °F - 36.0 °F 47% 30.32 in 10.0 mi South 6.9 mph - N/A   Clear
12:53 PM 55.9 °F - 36.0 °F 47% 30.29 in 10.0 mi Variable 6.9 mph - N/A   Clear
1:53 PM 55.9 °F - 36.0 °F 47% 30.26 in 10.0 mi South 6.9 mph - N/A   Clear
2:53 PM 55.9 °F - 37.0 °F 49% 30.25 in - South 4.6 mph - N/A   Scattered Clouds
3:53 PM 55.0 °F - 39.9 °F 57% 30.23 in 10.0 mi SSW 5.8 mph - N/A   Clear
4:53 PM 55.9 °F - 39.0 °F 53% 30.24 in - WSW 3.5 mph - N/A   Clear
5:53 PM 54.0 °F - 41.0 °F 62% 30.25 in 10.0 mi Calm Calm - N/A   Clear
6:53 PM 50.0 °F - 39.9 °F 68% 30.26 in 10.0 mi Calm Calm - N/A   Clear
7:53 PM 46.9 °F - 41.0 °F 80% 30.26 in 10.0 mi Calm Calm - N/A   Clear
8:53 PM 45.0 °F - 39.9 °F 82% 30.26 in - Calm Calm - N/A   Clear
9:53 PM 43.0 °F 41.3 °F 39.9 °F 89% 30.27 in - NW 3.5 mph - N/A   Clear
10:53 PM 42.1 °F - 39.0 °F 89% 30.26 in - Calm Calm - N/A   Clear
11:53 PM 41.0 °F - 39.0 °F 93% 30.26 in - Calm Calm - N/A   Clear